Danvers, MA

3:09 PM EST on December 02, 2016 (GMT -0500)
Beverly Municipal

Weather History for KBVY - November, 2012

Change the Weather History Date:

Friday, November 9, 2012

  Actual Average Record
Temperature  
Mean Temperature 45 °F -  
Max Temperature 53 °F 49 °F 70 °F (2009)
Min Temperature 37 °F 33 °F 21 °F (2003)
Degree Days  
Heating Degree Days 20    
Moisture  
Dew Point 27 °F    
Average Humidity 53    
Maximum Humidity 73    
Minimum Humidity 30    
Precipitation  
Precipitation 0.00 in - - ()
Sea Level Pressure  
Sea Level Pressure 29.90 in    
Wind  
Wind Speed 13 mph (NW)    
Max Wind Speed 18 mph    
Max Gust Speed 24 mph    
Visibility 10 miles    
Events      
Averages and records for this station are not official NWS values.
T = Trace of Precipitation, MM = Missing Value Source: NWS Daily Summary

Daily Weather History Graph

Daily Weather History Graph

Search for Another Location

Airport or City:

Trip Planner

Search our weather history database for the weather conditions in past years. The results will help you decide how hot, cold, wet, or windy it might be!

Date:

Astronomy

Nov. 09, 2012 Rise Set
Actual Time 6:28 AM EST 4:26 PM EST
Civil Twilight 5:58 AM EST 4:56 PM EST
Nautical Twilight 5:24 AM EST 5:30 PM EST
Astronomical Twilight 4:51 AM EST 6:03 PM EST
Moon 1:17 AM EST (11/9) 1:43 PM EST (11/9)
Length of Visible Light 10h 58m
Length of Day
9h 58m
Waning Crescent, 23% of the Moon is Illuminated
Nov 9
Waning Crescent
Nov 13
New
Nov 20
First Quarter
Nov 28
Full
Dec 6
Last Quarter

Hourly Weather History & Observations

Time (EST) Temp. Windchill Dew Point Humidity Pressure Visibility Wind Dir Wind Speed Gust Speed Precip Events Conditions
12:53 AM 39.9 °F 32.5 °F 32.0 °F 73% 29.73 in 10.0 mi NW 12.7 mph 19.6 mph N/A   Overcast
1:53 AM 39.9 °F 32.5 °F 30.9 °F 70% 29.74 in 10.0 mi NW 12.7 mph - N/A   Overcast
2:34 AM 39.2 °F 30.5 °F 30.2 °F 70% 29.76 in 10.0 mi NW 16.1 mph 21.9 mph N/A   Overcast
2:53 AM 39.9 °F 31.8 °F 30.9 °F 70% 29.75 in 10.0 mi NW 15.0 mph - N/A   Overcast
3:53 AM 39.0 °F 31.0 °F 30.0 °F 70% 29.76 in 10.0 mi NW 13.8 mph 21.9 mph N/A   Overcast
4:53 AM 39.0 °F 30.3 °F 28.9 °F 67% 29.78 in 10.0 mi NW 16.1 mph - N/A   Mostly Cloudy
5:53 AM 37.9 °F 30.0 °F 28.9 °F 70% 29.81 in 10.0 mi NW 12.7 mph 20.7 mph N/A   Mostly Cloudy
6:53 AM 37.0 °F 28.5 °F 28.9 °F 73% 29.83 in 10.0 mi NW 13.8 mph - N/A   Partly Cloudy
7:53 AM 39.9 °F 31.8 °F 28.9 °F 65% 29.86 in 10.0 mi NW 15.0 mph 20.7 mph N/A   Partly Cloudy
8:53 AM 44.1 °F 38.1 °F 30.0 °F 58% 29.86 in 10.0 mi NNW 11.5 mph 21.9 mph N/A   Clear
9:53 AM 46.0 °F 39.0 °F 30.9 °F 56% 29.88 in 10.0 mi NNW 17.3 mph - N/A   Clear
10:53 AM 48.9 °F - 30.9 °F 50% 29.90 in 10.0 mi NW 11.5 mph 19.6 mph N/A   Clear
11:53 AM 50.0 °F - 28.9 °F 44% 29.89 in 10.0 mi NNW 17.3 mph - N/A   Partly Cloudy
12:53 PM 52.0 °F - 27.0 °F 38% 29.90 in 10.0 mi NW 13.8 mph 20.7 mph N/A   Partly Cloudy
1:53 PM 52.0 °F - 21.0 °F 30% 29.90 in 10.0 mi NW 18.4 mph 24.2 mph N/A   Clear
2:53 PM 53.1 °F - 21.9 °F 30% 29.91 in 10.0 mi WNW 15.0 mph 24.2 mph N/A   Clear
3:53 PM 51.1 °F - 21.0 °F 31% 29.94 in 10.0 mi NW 12.7 mph - N/A   Clear
4:53 PM 48.9 °F - 19.9 °F 32% 29.96 in 10.0 mi NW 13.8 mph - N/A   Clear
5:53 PM 46.0 °F - 19.9 °F 35% 30.00 in 10.0 mi Calm Calm - N/A   Clear
6:53 PM 45.0 °F 41.2 °F 21.9 °F 40% 30.03 in 10.0 mi NW 6.9 mph - N/A   Clear
7:53 PM 44.1 °F 40.8 °F 25.0 °F 47% 30.04 in 10.0 mi WNW 5.8 mph - N/A   Clear
8:53 PM 43.0 °F 39.5 °F 24.1 °F 47% 30.06 in 10.0 mi West 5.8 mph - N/A   Clear
9:53 PM 42.1 °F 37.7 °F 24.1 °F 49% 30.06 in 10.0 mi West 6.9 mph - N/A   Clear
10:53 PM 39.9 °F 36.7 °F 24.1 °F 53% 30.06 in 10.0 mi West 4.6 mph - N/A   Clear
11:53 PM 39.9 °F 35.8 °F 24.1 °F 53% 30.08 in 10.0 mi West 5.8 mph - N/A   Clear